Weather History for Leesburg, FL

Change the Weather History Date:

Wednesday, January 23, 2013

  Actual Average Record
Temperature  
Mean Temperature 52 °F -  
Max Temperature 66 °F 69 °F 83 °F (1962)
Min Temperature 39 °F 43 °F 20 °F (1985)
Degree Days  
Heating Degree Days 12    
Growing Degree Days 2 (Base 50)    
Moisture  
Dew Point 34 °F    
Average Humidity 51    
Maximum Humidity 77    
Minimum Humidity 24    
Precipitation  
Precipitation 0.00 in - - ()
Sea Level Pressure  
Sea Level Pressure 30.34 in    
Wind  
Wind Speed 4 mph (NNE)    
Max Wind Speed 10 mph    
Max Gust Speed -    
Visibility 10 miles    
Events      
Averages and records for this station are not official NWS values.
T = Trace of Precipitation, MM = Missing Value Source: NWS Daily Summary

Daily Weather History Graph

Daily Weather History Graph

Search for Another Location

Airport:

Trip Planner

Search our weather history database for the weather conditions in past years. The results will help you decide how hot, cold, wet, or windy it might be!

Date:

Astronomy

Jan. 23, 2013 Rise Set
Actual Time 7:19 AM EST 5:59 PM EST
Civil Twilight 6:54 AM EST 6:24 PM EST
Nautical Twilight 6:25 AM EST 6:52 PM EST
Astronomical Twilight 5:57 AM EST 7:21 PM EST
Moon 3:12 PM EST (1/23) 4:26 AM EST (1/23)
Length of Visible Light 11h 29m
Length of Day
10h 39m
Waxing Gibbous, 89% of the Moon is Illuminated
Jan 23
Waxing Gibbous
Jan 26
Full
Feb 3
Last Quarter
Feb 10
New
Feb 17
First Quarter

Hourly Weather History & Observations

Time (EST) Temp. Windchill Dew Point Humidity Pressure Visibility Wind Dir Wind Speed Gust Speed Precip Events Conditions
12:53 AM 50.0 °F - 39.0 °F 66% 30.31 in 10.0 mi NNE 4.6 mph - N/A   Clear
1:53 AM 48.9 °F - 35.1 °F 59% 30.31 in 10.0 mi NNE 4.6 mph - N/A   Clear
2:53 AM 46.0 °F 43.9 °F 36.0 °F 68% 30.32 in 10.0 mi North 4.6 mph - N/A   Clear
3:53 AM 46.0 °F 41.9 °F 33.1 °F 61% 30.33 in 10.0 mi NNE 8.1 mph - N/A   Clear
4:53 AM 44.1 °F 40.8 °F 30.9 °F 60% 30.33 in 10.0 mi North 5.8 mph - N/A   Clear
5:53 AM 41.0 °F 38.0 °F 32.0 °F 70% 30.35 in 10.0 mi North 4.6 mph - N/A   Clear
6:53 AM 39.0 °F - 30.9 °F 73% 30.36 in 10.0 mi Calm Calm - N/A   Clear
7:53 AM 42.1 °F - 33.1 °F 70% 30.38 in 10.0 mi Calm Calm - N/A   Clear
8:53 AM 48.9 °F - 36.0 °F 61% 30.39 in 10.0 mi ENE 3.5 mph - N/A   Clear
9:53 AM 57.9 °F - 30.9 °F 36% 30.40 in 10.0 mi NNE 3.5 mph - N/A   Clear
10:53 AM 62.1 °F - 28.9 °F 29% 30.40 in 10.0 mi North 10.4 mph - N/A   Clear
11:53 AM 63.0 °F - 28.0 °F 27% 30.38 in 10.0 mi NE 9.2 mph - N/A   Clear
12:53 PM 64.0 °F - 28.0 °F 26% 30.35 in 10.0 mi Variable 5.8 mph - N/A   Clear
1:53 PM 64.9 °F - 28.9 °F 26% 30.32 in 10.0 mi NNW 3.5 mph - N/A   Clear
2:53 PM 66.9 °F - 28.9 °F 24% 30.30 in 10.0 mi NNW 6.9 mph - N/A   Clear
3:53 PM 66.9 °F - 30.0 °F 25% 30.31 in 10.0 mi SSW 3.5 mph - N/A   Clear
4:53 PM 64.9 °F - 33.1 °F 31% 30.31 in 10.0 mi South 4.6 mph - N/A   Clear
5:53 PM 61.0 °F - 37.9 °F 42% 30.32 in 10.0 mi Calm Calm - N/A   Clear
6:53 PM 55.9 °F - 37.9 °F 51% 30.32 in 10.0 mi Calm Calm - N/A   Clear
7:53 PM 53.1 °F - 39.0 °F 59% 30.33 in 10.0 mi Calm Calm - N/A   Clear
8:53 PM 51.1 °F - 44.1 °F 77% 30.32 in 10.0 mi Calm Calm - N/A   Clear
9:53 PM 53.1 °F - 42.1 °F 66% 30.33 in 10.0 mi SE 5.8 mph - N/A   Clear
10:53 PM 51.1 °F - 42.1 °F 71% 30.34 in 10.0 mi Calm Calm - N/A   Clear